Preview of NWS' New Version of Forecast
This preview is not operational and should not be used for support decisions.

Regional Weather Roundup (RWR)

Issued by National Weather Service (NWS)

                            
000
ASUS46 KPQR 221710
RWROR 

OREGON REGIONAL WEATHER ROUNDUP
NATIONAL WEATHER SERVICE PORTLAND OR
1000 AM PDT MON APR 22 2019

NOTE: "FAIR" INDICATES FEW OR NO CLOUDS BELOW 12,000 FEET WITH
NO SIGNIFICANT WEATHER AND/OR OBSTRUCTIONS TO VISIBILITY.

ORZ001>013-221800-
NORTHWEST OREGON

  
CITY           SKY/WX    TMP DP  RH WIND       PRES   REMARKS
ASTORIA        CLOUDY    52  44  74 E3        30.25F                  
TILLAMOOK      CLOUDY    52  45  76 CALM      30.30F                  
NEWPORT        CLOUDY    52  50  93 CALM      30.33                   
PORTLAND       CLOUDY    51  43  74 NE6       30.32F                  
VANCOUVER WA   PTSUNNY   50  43  77 CALM      30.31F                  
SCAPPOOSE      PTSUNNY   52  45  77 SE5       30.31F                  
HILLSBORO      PTSUNNY   52  45  77 CALM      30.30F                  
AURORA         CLOUDY    50  45  83 SE3       30.32F                  
MCMINNVILLE    PTSUNNY   50  46  86 CALM      30.31F                  
SALEM          CLOUDY    51  46  83 S6        30.31F                  
CORVALLIS      CLOUDY    50  47  89 S5        30.33F                  
EUGENE         PTSUNNY   54  46  74 SE7       30.32F                  
$$

ORZ021-028-221800-
SOUTHWEST OREGON

  
CITY           SKY/WX    TMP DP  RH WIND       PRES   REMARKS
NORTH BEND     MOSUNNY   52  47  83 CALM      30.33F                  
BROOKINGS      SUNNY     55  49  80 VRB5      30.29S                  
ROSEBURG       SUNNY     53  44  71 CALM      30.33F                  
SEXTON SUMMIT  SUNNY     52  38  58 CALM      30.31R                  
GRANTS PASS    FAIR      52  41  66 CALM      30.36S                  
MEDFORD        SUNNY     53  44  71 CALM      30.32F                  
$$

ORZ014>016-041-221800-
COLUMBIA GORGE

  
CITY           SKY/WX    TMP DP  RH WIND       PRES   REMARKS
TROUTDALE      CLOUDY    53  44  71 E5        30.32F                  
HOOD RIVER     PTSUNNY   55  39  54 MISG      30.27F                  
THE DALLES     PTSUNNY   56  39  53 CALM      30.26F                  
$$

ORZ029>031-041-044-049-050-061>064-502-503-505>511-221800-
EASTERN OREGON

  
CITY           SKY/WX    TMP DP  RH WIND       PRES   REMARKS
MADRAS         MOSUNNY   50  39  66 CALM      30.30F                  
REDMOND        SUNNY     57  37  47 E5        30.28F                  
BEND           SUNNY     59  37  44 VRB5      30.27F                  
PRINEVILLE     SUNNY     54  37  54 CALM      30.28F                  
KLAMATH FALLS  SUNNY     52  40  63 CALM      30.31F                  
LAKEVIEW       SUNNY     53  32  44 NW9       30.31S                  
HERMISTON      PTSUNNY   60  40  47 W9        30.25F                  
PENDLETON      MOSUNNY   57  40  52 CALM      30.25F                  
JOHN DAY       SUNNY     50  37  61 CALM      30.30S                  
MEACHAM        SUNNY     55  32  41 CALM      30.26S                  
LA GRANDE      SUNNY     48  36  63 CALM      30.29F                  
BAKER CITY     SUNNY     54  34  46 NW3       30.28S                  
BURNS          SUNNY     50  35  56 VRB3      30.30S                  
ROME             N/A     56  31  38 NW6       30.26R                  
ONTARIO        SUNNY     63  38  39 W13       30.25R                  
$$